Tracking 30995 objects as of 7-Jul-2025
HD Live streaming from Space Station
objects crossing your sky now

STARLETTE

Track STARLETTE now!
10-day predictions
STARLETTE is classified as:


NORAD ID: 7646
Int'l Code: 1975-010A
Perigee: 811.8 km
Apogee: 1,113.6 km
Inclination: 49.8 °
Period: 104.2 minutes
Semi major axis: 7333 km
RCS: 0.168 m2 (medium)
Launch date: February 6, 1975
Source: France (FR)
Launch site: FRENCH GUIANA (FRGUI)
Your satellite tracking list
Your tracking list is empty




NASA's NSSDC Master Catalog

Two Line Element Set (TLE):
1 07646U 75010A   25187.60401207 -.00000136  00000-0  61722-5 0  9993
2 07646  49.8253  28.6749 0205734   1.3804 358.7618 13.82344070546734
Source of the keplerian elements: AFSPC